Location: North Evanston
(42.0634°N, 87.6976°W)
Time: 19:43:28
(UTC+00:00)

Vanguard 3 - Pass Details

Date: 18 May 2026
Orbit: 507 x 3205 km, 33.4° (Epoch: 31 May)

Event Time Altitude Azimuth Distance (km) Brightness Sun altitude
Rises 23:15:39 0° 277° (W) 7,136 13.7 18.8°
Reaches altitude 10° 23:20:44 10° 273° (W) 6,124 13.9 17.9°
Maximum altitude 23:38:17 47° 208° (SSW) 3,365 10.6 14.7°
Drops below altitude 10° 23:50:50 10° 140° (SE) 4,461 10.5 12.4°
Sets 23:53:55 0° 134° (SE) 5,134 10.7 11.9°
